Eagle, CO

3:17 AM MDT on May 29, 2017 (GMT -0600)
Eagle County Regional

Weather History for KEGE - July, 2013

Change the Weather History Date:

Tuesday, July 9, 2013

  Actual Average Record
Temperature  
Mean Temperature 72 °F -  
Max Temperature 87 °F 84 °F 95 °F (1989)
Min Temperature 57 °F 48 °F 34 °F (1955)
Cooling Degree Days 7    
Growing Degree Days 22 (Base 50)    
Moisture  
Dew Point 40 °F    
Average Humidity 37    
Maximum Humidity 63    
Minimum Humidity 15    
Precipitation  
Precipitation 0.00 in - - ()
Sea Level Pressure  
Sea Level Pressure 30.30 in    
Wind  
Wind Speed 3 mph (East)    
Max Wind Speed 13 mph    
Max Gust Speed 29 mph    
Visibility 10 miles    
Events      
Averages and records for this station are not official NWS values.
T = Trace of Precipitation, MM = Missing Value Source: NWS Daily Summary

Daily Weather History Graph

Daily Weather History Graph

Search for Another Location

Airport or City:

Trip Planner

Search our weather history database for the weather conditions in past years. The results will help you decide how hot, cold, wet, or windy it might be!

Date:

Astronomy

Jul. 09, 2013 Rise Set
Actual Time 5:48 AM MDT 8:37 PM MDT
Civil Twilight 5:16 AM MDT 9:09 PM MDT
Nautical Twilight 4:36 AM MDT 9:49 PM MDT
Astronomical Twilight 3:50 AM MDT 10:35 PM MDT
Moon 7:15 AM MDT (7/9) 9:16 PM MDT (7/9)
Length of Visible Light 15h 52m
Length of Day
14h 48m
New Moon, 2% of the Moon is Illuminated
Jul 9
New Moon
Jul 15
First Quarter
Jul 22
Full
Jul 29
Last Quarter
Aug 6
New

Hourly Weather History & Observations

Time (MDT) Temp. Dew Point Humidity Pressure Visibility Wind Dir Wind Speed Gust Speed Precip Events Conditions
12:15 AM 64.4 °F 42.8 °F 45% 30.29 in 10.0 mi East 5.8 mph - N/A   Clear
12:35 AM 64.4 °F 42.8 °F 45% 30.29 in 10.0 mi ESE 3.5 mph - N/A   Clear
12:55 AM 64.4 °F 42.8 °F 45% 30.29 in 10.0 mi Calm Calm - N/A   Clear
1:15 AM 64.4 °F 42.8 °F 45% 30.30 in 10.0 mi Calm Calm - N/A   Clear
1:35 AM 64.4 °F 42.8 °F 45% 30.29 in 10.0 mi East 3.5 mph - N/A   Clear
1:55 AM 64.4 °F 42.8 °F 45% 30.30 in 10.0 mi Calm Calm - N/A   Clear
2:15 AM 62.6 °F 42.8 °F 48% 30.30 in 10.0 mi Calm Calm - N/A   Clear
2:35 AM 62.6 °F 42.8 °F 48% 30.30 in 10.0 mi Calm Calm - N/A   Clear
2:55 AM 60.8 °F 42.8 °F 52% 30.31 in 10.0 mi Calm Calm - N/A   Clear
3:15 AM 60.8 °F 42.8 °F 52% 30.30 in 10.0 mi SE 3.5 mph - N/A   Scattered Clouds
3:35 AM 59.0 °F 42.8 °F 55% 30.31 in 10.0 mi East 4.6 mph - N/A   Partly Cloudy
3:55 AM 60.8 °F 42.8 °F 52% 30.31 in 10.0 mi ENE 3.5 mph - N/A   Clear
4:15 AM 59.0 °F 42.8 °F 55% 30.31 in 10.0 mi SE 3.5 mph - N/A   Clear
4:35 AM 60.8 °F 42.8 °F 52% 30.32 in 10.0 mi SSE 3.5 mph - N/A   Partly Cloudy
4:55 AM 60.8 °F 42.8 °F 52% 30.32 in 10.0 mi Calm Calm - N/A   Partly Cloudy
5:15 AM 59.0 °F 42.8 °F 55% 30.33 in 10.0 mi Calm Calm - N/A   Clear
5:35 AM 59.0 °F 42.8 °F 55% 30.34 in 10.0 mi Calm Calm - N/A   Clear
5:55 AM 57.2 °F 42.8 °F 59% 30.34 in 10.0 mi Calm Calm - N/A   Clear
6:15 AM 57.2 °F 42.8 °F 59% 30.34 in 10.0 mi Calm Calm - N/A   Clear
6:35 AM 57.2 °F 42.8 °F 59% 30.35 in 9.0 mi Calm Calm - N/A   Clear
6:50 AM 57.2 °F 44.6 °F 63% 30.35 in 10.0 mi Calm Calm - N/A   Partly Cloudy
7:55 AM 62.6 °F 42.8 °F 48% 30.37 in 10.0 mi Calm Calm - N/A   Partly Cloudy
8:50 AM 66.2 °F 42.8 °F 43% 30.37 in 10.0 mi Calm Calm - N/A   Partly Cloudy
9:50 AM 69.8 °F 42.8 °F 38% 30.36 in 10.0 mi Calm Calm - N/A   Partly Cloudy
10:50 AM 75.2 °F 41.0 °F 29% 30.36 in 10.0 mi Calm Calm - N/A   Scattered Clouds
11:50 AM 82.4 °F 41.0 °F 23% 30.34 in 0.0 mi North - - N/A   Scattered Clouds
12:50 PM 84.2 °F 37.4 °F 19% 30.31 in 10.0 mi Calm Calm - N/A   Scattered Clouds
1:50 PM 87.8 °F 37.4 °F 17% 30.30 in 10.0 mi NW 10.4 mph 19.6 mph N/A   Scattered Clouds
2:55 PM 84.2 °F 33.8 °F 16% 30.30 in 10.0 mi WNW 12.7 mph 28.8 mph N/A   Scattered Clouds
3:50 PM 86.0 °F 33.8 °F 15% 30.30 in 10.0 mi West 5.8 mph - N/A   Scattered Clouds
4:50 PM 86.0 °F 37.4 °F 18% 30.28 in 10.0 mi Variable 6.9 mph - N/A   Scattered Clouds
5:50 PM 86.0 °F 35.6 °F 17% 30.26 in 10.0 mi Variable 6.9 mph - N/A   Partly Cloudy
6:50 PM 86.0 °F 35.6 °F 17% 30.25 in 10.0 mi Variable 5.8 mph - N/A   Partly Cloudy
7:15 PM 86.0 °F 35.6 °F 17% 30.24 in 10.0 mi ENE 8.1 mph - N/A   Clear
7:35 PM 84.2 °F 35.6 °F 18% 30.24 in 10.0 mi East 6.9 mph - N/A   Clear
7:55 PM 84.2 °F 37.4 °F 19% 30.24 in 10.0 mi ENE 10.4 mph - N/A   Clear
8:15 PM 82.4 °F 39.2 °F 21% 30.25 in 10.0 mi NE 6.9 mph - N/A   Clear
8:35 PM 80.6 °F 37.4 °F 21% 30.25 in 10.0 mi East 6.9 mph - N/A   Clear
8:55 PM 78.8 °F 37.4 °F 23% 30.25 in 10.0 mi SE 5.8 mph - N/A   Clear
9:15 PM 77.0 °F 37.4 °F 24% 30.26 in 10.0 mi SE 4.6 mph - N/A   Clear
9:35 PM 73.4 °F 39.2 °F 29% 30.27 in 10.0 mi East 8.1 mph - N/A   Clear
9:55 PM 71.6 °F 39.2 °F 31% 30.28 in 10.0 mi East 8.1 mph - N/A   Clear
10:15 PM 71.6 °F 39.2 °F 31% 30.28 in 10.0 mi ENE 8.1 mph - N/A   Clear
10:35 PM 69.8 °F 39.2 °F 33% 30.28 in 10.0 mi ESE 5.8 mph - N/A   Clear
10:55 PM 69.8 °F 39.2 °F 33% 30.29 in 10.0 mi Calm Calm - N/A   Clear
11:15 PM 68.0 °F 39.2 °F 35% 30.29 in 10.0 mi Calm Calm - N/A   Clear
11:35 PM 66.2 °F 37.4 °F 35% 30.29 in 10.0 mi Calm Calm - N/A   Clear
11:55 PM 66.2 °F 37.4 °F 35% 30.30 in 10.0 mi Calm Calm - N/A   Clear